www.pogodaiklimat.ru

Погода и климат >> Архив погоды >> Мексика >> Гуаймас


ПОГОДА в Гуаймасе

  • Прогноз погоды в Гуаймасе
  • Монитор погоды в Гуаймасе

АРХИВ ПОГОДЫ в Гуаймасе

Время (UTC), дата Ветер
(напр.,м/с)
 
Видим.   Явления Облачность Т
(С)
Тd
(С)
f
(%)
Тe
(С)
Тes
(С)
Комфортность P
(гПа)
Po
(гПа)
Тmin
(С)
Tmax
(С)
R
(мм)
R24
(мм)
S
(см)
06 15.09 С 2 н/о н/о +26.7 +21.2 72 +34 +34 очень
душно
1013.1 1011.6 +26.7 +34.5
09 15.09 З 1 н/о н/о +25.9 +22.1 80 +34 +34 очень
душно
1011.9 1010.3
12 15.09 СВ 2 н/о н/о +25.0 +22.5 86 +33 +33 очень
душно
1011.4 1009.8 +24.9 +34.5
15 15.09 СВ 3 н/о н/о +28.4 +22.1 69 +37 +37 очень
душно
1012.9 1011.4
18 15.09 Ю 2 н/о н/о +33.3 +22.6 54 +43 +43 опасность
перегрева
1013.2 1011.7 +24.4 +33.3
21 15.09 Ю 3 н/о н/о +34.8 +22.3 48 +44 +44 опасность
перегрева
1010.7 1009.1
00 16.09 Ю 4 н/о н/о +33.0 +23.6 58 +44 +44 опасность
перегрева
1009.0 1007.5 +24.4 +35.8
03 16.09 Ю 2 н/о н/о +29.9 +25.3 76 +43 +43 опасность
перегрева
1010.7 1009.2
06 16.09 Ю 1 н/о н/о +29.1 +26.0 83 +44 +44 опасность
перегрева
1011.6 1010.1 +24.4 +35.8
09 16.09 С 1 н/о н/о +28.1 +25.0 83 +40 +40 очень
душно
1011.5 1009.9
12 16.09 С 2 н/о н/о +24.8 -4 -4 1011.5 1010.1 +26.8 +35.8
15 16.09 СВ 3 н/о н/о +29.9 +24.5 73 +42 +42 опасность
перегрева
1012.5 1011.0
18 16.09 Ю 3 н/о н/о +34.4 +21.5 47 +42 +42 опасность
перегрева
1012.3 1010.8 +26.7 +35.3
21 16.09 ЮЗ 4 н/о н/о +35.5 +21.0 43 +43 +43 опасность
перегрева
1010.3 1009.0
00 17.09 Ю 5 н/о н/о +32.5 +24.9 64 +46 +46 опасность
перегрева
1008.7 1007.2 +26.7 +36.0
03 17.09 Ю 2 н/о н/о +30.1 +25.6 77 +44 +44 опасность
перегрева
1010.1 1008.5
06 17.09 СВ 2 н/о н/о +29.8 +21.9 63 +38 +38 очень
душно
1010.9 1009.3 +26.7 +36.0
09 17.09 СВ 2 н/о н/о +28.1 +21.5 67 +36 +36 очень
душно
1010.9 1009.3
12 17.09 С 2 н/о н/о +26.7 +21.9 75 +34 +34 очень
душно
1010.8 1009.2 +26.7 +36.0
15 17.09 СВ 3 н/о н/о +30.1 +21.7 61 +38 +38 очень
душно
1012.0 1010.5
18 17.09 Ю 2 н/о н/о +36.0 +21.9 44 +44 +44 опасность
перегрева
1011.7 1010.2 +26.1 +36.6
21 17.09 Ю 5 н/о н/о +35.5 +21.6 45 +44 +44 опасность
перегрева
1009.6 1008.1
00 18.09 З 4 н/о н/о +34.6 +21.2 46 +42 +42 опасность
перегрева
1008.2 1006.7 +26.1 +37.0
03 18.09 ЮЗ 3 н/о н/о +31.4 +23.5 63 +42 +42 опасность
перегрева
1008.8 1007.2
06 18.09 Ю 1 н/о н/о +29.8 +23.6 69 +40 +40 очень
душно
1009.9 1008.3 +26.1 +37.0
09 18.09 З 1 н/о н/о +28.9 +24.1 75 +40 +40 очень
душно
1009.9 1008.3
12 18.09 С 2 н/о н/о +27.0 +23.7 82 +37 +37 очень
душно
1009.9 1008.4 +27.0 +37.0
15 18.09 СВ 2 н/о н/о +30.6 +25.4 74 +45 +45 опасность
перегрева
1010.9 1009.4
18 18.09 Ю 3 н/о н/о +34.5 +25.2 59 +49 +49 опасность
перегрева
1011.2 1009.7 +27.0 +35.2
21 18.09 Ю 5 н/о н/о +35.8 +20.9 42 +43 +43 опасность
перегрева
1009.4 1007.9
00 19.09 ЮЗ 5 н/о н/о +33.5 +25.8 64 +49 +49 опасность
перегрева
1007.9 1006.4 +27.0 +36.5
03 19.09 Ю 2 н/о н/о +30.9 +26.2 76 +47 +47 опасность
перегрева
1009.0 1007.4
06 19.09 Ю 1 н/о н/о +29.5 +27.0 86 +46 +46 опасность
перегрева
1009.9 1008.5 +27.0 +36.5
09 19.09 Ю 1 н/о н/о +29.0 +26.7 87 +45 +45 опасность
перегрева
1009.3 1007.8
12 19.09 С 2 н/о н/о +27.9 +24.9 84 +40 +40 очень
душно
1008.5 1006.9 +27.9 +36.5
15 19.09 С 2 н/о н/о +30.0 +25.4 76 +44 +44 опасность
перегрева
1009.0 1007.6
18 19.09 ЮЗ 3 н/о н/о +34.5 +25.2 59 +49 +49 опасность
перегрева
1008.8 1007.3 +27.0 +35.1
21 19.09 ЮЗ 5 н/о н/о +35.5 +24.1 52 +47 +47 опасность
перегрева
1006.8 1005.3
00 20.09 ЮЗ 4 н/о н/о +34.6 +23.6 53 +46 +46 опасность
перегрева
1005.5 +27.0 +35.9
03 20.09 З 1 н/о н/о +31.5 +22.7 60 +41 +41 опасность
перегрева
1005.7 1004.2
06 20.09 Ю 1 н/о н/о +29.6 +24.1 72 +41 +41 опасность
перегрева
1007.4 1005.9 +27.0 +35.9
09 20.09 Ю 3 н/о н/о +30.1 +26.2 80 +46 +46 опасность
перегрева
1008.4 1007.0
12 20.09 В 2 н/о н/о +26.6 +25.6 94 +39 +39 очень
душно
1008.6 1007.0 +25.9 +35.9 8
15 20.09 В 4 н/о н/о +27.7 +22.8 75 +37 +37 очень
душно
1010.1 1008.6
18 20.09 ЮВ 4 н/о н/о +32.7 +23.3 58 +43 +43 опасность
перегрева
1010.5 1009.2 +25.9 +32.7
21 20.09 Ю 5 н/о н/о +33.0 +24.8 62 +46 +46 опасность
перегрева
1009.1 1007.6
00 21.09 Ю 5 н/о н/о +32.0 +25.6 69 +47 +47 опасность
перегрева
1008.4 1006.8 +25.9 +34.1
03 21.09 Ю 3 н/о н/о +29.8 +24.9 75 +43 +43 опасность
перегрева
1009.4 1008.0
06 21.09 ЮВ 1 н/о н/о +28.9 +24.3 76 +40 +40 очень
душно
1009.7 1008.2 +25.9 +34.1
09 21.09 С 1 н/о н/о +28.1 +24.0 78 +39 +39 очень
душно
1009.9 1008.4
12 21.09 С 2 н/о н/о +23.9 -4 -4 1009.9 1008.5 +26.9 +34.1
15 21.09 С 2 н/о н/о +29.0 +23.5 72 +39 +39 очень
душно
1010.6 1009.1
18 21.09 В 4 н/о н/о +32.2 +21.4 53 +40 +40 очень
душно
1010.6 1009.1 +26.9 +32.6
21 21.09 В 4 н/о н/о +30.2 +21.7 60 +38 +38 очень
душно
1009.3 1007.9
00 22.09 В 3 н/о н/о +29.5 +21.9 64 +38 +38 очень
душно
1008.9 1007.4 +26.9 +33.3
03 22.09 В 4 н/о н/о +28.0 +24.1 79 +39 +39 очень
душно
1009.7 1008.2

 

Местоположение метеостанции Гуаймас (Мексика): широта 27.92 долгота -110.88 высота над уровнем моря 4 м.

В архиве по умолчанию представлена погода в Гуаймасе за последнюю неделю. Архивные данные за месяц целиком и за предыдущие месяцы, начиная с января 2011 года, Вы можете получить, выбрав интересующий диапазон дат из раскрывающегося списка и нажав кнопку "Ввод!".


*Определитесь, кто Вы:
робот инопланетянин человек

Внимание! Время в таблицах - всемирное. Для получения местного времени необходимо прибавить поправку, которая равна -7 ч.

Смотрите также архив погоды в соседних городах и на ближайших метеорологических станциях:

Погода в Эмпальме (Мексика) (18 км)
Погода в Сьюдад-Обрегоне (Мексика) (119 км)
Погода в Эрмосильо Магна (Мексика) (129 км)
Погода в Эрмосильо (Мексика) (131 км)
Погода в Санта-Розалии (Мексика) (153 км)
Погода в Лорето (Мексика) (215 км)
Погода в Чойсе (Мексика) (296 км)
Погода в Накосари де Гарсия (Мексика) (296 км)
Погода в Темосачи (Мексика) (322 км)
Погода в Альтаре (Мексика) (324 км)

Пояснения к столбцам:

Ветер - указаны скорость ветра в м/с - средняя за 10 мин, порывы в срок и между сроками (в фигурных скобках) и направление, откуда дует ветер: С - северный, СВ - северо-восточный, В - восточный, ЮВ - юго-восточный, Ю - южный, ЮЗ - юго-западный, З - западный, СЗ - северо-западный.
Видимость - горизонтальная дальность видимости в метрах или километрах. При видимости от 1 до 10 км при отсутствии осадков обычно наблюдается дымка, при ухудшении видимости до 1 км и менее - туман. В сухую погоду видимость может ухудшаться дымом, пылью или мглою.
Явления - указаны атмосферные явления, наблюдавшиеся в срок или в последний час перед сроком; фигурными скобками обозначены явления, наблюдавшиеся между сроками (за 1-3 часа до срока); квадратными скобками обозначены град или гололедные отложения с указанием их диаметра в мм.
Облачность - указаны через наклонную черту общая и нижняя облачность в баллах и высота нижней границы облаков в метрах; квадратными скобками обозначены формы облаков: Ci - перистые, Cs - перисто-слоистые, Cc - перисто-кучевые, Ac - высококучевые, As - высокослоистые, Sc - слоисто-кучевые, Ns - слоисто-дождевые, Cu - кучевые, Cb - кучево-дождевые. Подробнее классификацию облаков см. в Атласе облаков (PDF).
T - Температура воздуха - температура, измеренная на высоте 2 м над землей.
Td - Температура точки росы - температура, при понижении до которой содержащийся в воздухе водяной пар достигнет насыщения.
f - Относительная влажность воздуха - влажноcть воздуха, измеренная на высоте 2 м над землей.
Te - Эффективная температура - температура, которую ощущает одетый по сезону человек в тени. Характеристика душности погоды. При расчете учитывается влияние влажности воздуха и скорости ветра на теплоощущения человека.
Tes - Эффективная температура на солнце - температура, которую ощущает человек, с поправкой на солнечный нагрев. Характеристика знойности погоды. Зависит от высоты солнца над горизонтом, облачности и скорости ветра. Ночью, в пасмурную погоду, а также при ветре 12 м/с и более поправка равна нулю.
P - Атмосферное давление - приведенное к уровню моря атмосферное давление.
Po - Атмосферное давление - измеренное на уровне метеостанции атмосферное давление.
Tmin - Минимальная температура - минимум температуры воздуха на высоте 2 м над землей.
Tmax - Максимальная температура - максимум температуры воздуха на высоте 2 м над землей.
R - Количество осадков - Количество выпавших осадков за период времени, мм. При наведении курсора мыши на число - период времени, за который выпало указанное количество осадков.
R24 - Количество осадков - Количество выпавших осадков за 24 часа, мм.
S - Снежный покров - Высота снежного покрова, см. При наведении курсора мыши на число - состояние снежного покрова и степень покрытия местности в баллах.